Weather History for KOLM - August, 2013

Change the Weather History Date:

Friday, August 2, 2013

  Actual Average Record
Temperature  
Mean Temperature 60 °F 65 °F  
Max Temperature 66 °F 79 °F 92 °F (2009)
Min Temperature 53 °F 52 °F 40 °F (1963)
Degree Days  
Heating Degree Days 5 2  
Month to date heating degree days 8 4  
Since 1 June heating degree days 201 272  
Since 1 July heating degree days 65 84  
Cooling Degree Days 0 2  
Month to date cooling degree days 0 4  
Year to date cooling degree days 64 61  
Since 1 June cooling degree days 62 58  
Growing Degree Days 10 (Base 50)    
Moisture  
Dew Point 55 °F    
Average Humidity 80    
Maximum Humidity 93    
Minimum Humidity 67    
Precipitation  
Precipitation 0.01 in 0.02 in 0.88 in (1956)
Month to date precipitation 0.01 0.03  
Year to date precipitation 21.43 26.69  
Sea Level Pressure  
Sea Level Pressure 30.11 in    
Wind  
Wind Speed 6 mph (SW)    
Max Wind Speed 13 mph    
Max Gust Speed 16 mph    
Visibility 10 miles    
Events Rain    
T = Trace of Precipitation, MM = Missing Value Source: NWS Daily Summary

Daily Weather History Graph

Daily Weather History Graph

Search for Another Location

Airport or City:

Trip Planner

Search our weather history database for the weather conditions in past years. The results will help you decide how hot, cold, wet, or windy it might be!

Date:

Astronomy

Aug. 02, 2013 Rise Set
Actual Time 5:52 AM PDT 8:42 PM PDT
Civil Twilight 5:17 AM PDT 9:17 PM PDT
Nautical Twilight 4:32 AM PDT 10:01 PM PDT
Astronomical Twilight 3:39 AM PDT 10:54 PM PDT
Moon 2:15 AM PDT (8/2) 5:46 PM PDT (8/2)
Length of Visible Light 15h 59m
Length of Day
14h 49m
Waning Crescent, 15% of the Moon is Illuminated
Aug 2
Waning Crescent
Aug 6
New
Aug 14
First Quarter
Aug 20
Full
Aug 28
Last Quarter

Hourly Weather History & Observations

Time (PDT) Temp. Dew Point Humidity Pressure Visibility Wind Dir Wind Speed Gust Speed Precip Events Conditions
12:54 AM 57.0 °F 53.1 °F 87% 30.09 in 10.0 mi WSW 5.8 mph - N/A   Mostly Cloudy
1:54 AM 54.0 °F 52.0 °F 93% 30.09 in 10.0 mi South 5.8 mph - N/A   Clear
2:54 AM 54.0 °F 52.0 °F 93% 30.09 in 10.0 mi South 8.1 mph - N/A   Partly Cloudy
3:54 AM 54.0 °F 52.0 °F 93% 30.09 in 10.0 mi South 5.8 mph - N/A   Partly Cloudy
4:40 AM 55.9 °F 53.1 °F 90% 30.09 in 10.0 mi South 3.5 mph - N/A   Mostly Cloudy
4:54 AM 55.9 °F 53.1 °F 90% 30.09 in 10.0 mi SSW 3.5 mph - N/A   Overcast
5:32 AM 57.0 °F 53.1 °F 87% 30.09 in 10.0 mi SSW 6.9 mph - N/A   Overcast
5:54 AM 55.9 °F 54.0 °F 93% 30.09 in 5.0 mi South 8.1 mph - N/A   Overcast
6:07 AM 55.9 °F 54.0 °F 93% 30.09 in 10.0 mi SSW 6.9 mph - N/A   Overcast
6:18 AM 55.9 °F 54.0 °F 93% 30.09 in 10.0 mi South 6.9 mph - N/A   Overcast
6:26 AM 55.9 °F 54.0 °F 93% 30.10 in 10.0 mi South 8.1 mph - N/A   Overcast
6:54 AM 57.0 °F 54.0 °F 89% 30.10 in 10.0 mi South 8.1 mph - N/A   Overcast
7:22 AM 57.9 °F 54.0 °F 87% 30.11 in 10.0 mi SSW 5.8 mph - N/A   Mostly Cloudy
7:54 AM 59.0 °F 54.0 °F 83% 30.12 in 10.0 mi SSW 8.1 mph - N/A   Overcast
8:54 AM 60.1 °F 54.0 °F 80% 30.12 in 10.0 mi SSW 5.8 mph - N/A   Overcast
9:54 AM 61.0 °F 55.0 °F 81% 30.12 in 10.0 mi SSW 8.1 mph - N/A   Overcast
10:54 AM 64.0 °F 55.0 °F 73% 30.12 in 10.0 mi South 11.5 mph - 0.00 in   Overcast
11:01 AM 63.0 °F 55.0 °F 75% 30.11 in 10.0 mi South 11.5 mph - N/A   Overcast
11:22 AM 63.0 °F 54.0 °F 72% 30.11 in 10.0 mi SSW 9.2 mph - N/A   Overcast
11:54 AM 64.0 °F 54.0 °F 70% 30.12 in 10.0 mi WSW 8.1 mph - N/A   Overcast
12:54 PM 62.1 °F 55.9 °F 80% 30.13 in 7.0 mi WSW 6.9 mph - N/A   Overcast
1:17 PM 64.0 °F 55.9 °F 75% 30.12 in 10.0 mi SSW 6.9 mph - N/A   Overcast
1:24 PM 64.0 °F 55.9 °F 75% 30.12 in 9.0 mi WSW 5.8 mph - N/A   Overcast
1:54 PM 64.0 °F 55.9 °F 75% 30.13 in 10.0 mi West 8.1 mph - N/A   Overcast
2:54 PM 64.9 °F 55.0 °F 70% 30.13 in 10.0 mi SSW 4.6 mph - N/A   Overcast
3:54 PM 64.9 °F 55.9 °F 73% 30.13 in 10.0 mi West 9.2 mph - N/A   Overcast
4:42 PM 64.9 °F 55.0 °F 70% 30.12 in 10.0 mi WSW 6.9 mph - 0.00 in Rain Light Rain
4:54 PM 64.9 °F 55.0 °F 70% 30.13 in 10.0 mi West 6.9 mph - 0.00 in   Overcast
5:17 PM 63.0 °F 57.0 °F 81% 30.12 in 10.0 mi West 6.9 mph - 0.01 in Rain Light Rain
5:54 PM 62.1 °F 55.9 °F 80% 30.12 in 10.0 mi West 4.6 mph - 0.01 in   Mostly Cloudy
6:13 PM 63.0 °F 55.9 °F 78% 30.12 in 10.0 mi West 3.5 mph - N/A   Overcast
6:54 PM 63.0 °F 55.9 °F 78% 30.12 in 10.0 mi WSW 3.5 mph - N/A   Mostly Cloudy
7:36 PM 63.0 °F 55.9 °F 78% 30.12 in 10.0 mi SW 3.5 mph - N/A   Overcast
7:54 PM 63.0 °F 57.0 °F 81% 30.13 in 10.0 mi West 3.5 mph - N/A   Overcast
8:54 PM 62.1 °F 59.0 °F 90% 30.13 in 10.0 mi East 4.6 mph - N/A   Overcast
9:54 PM 62.1 °F 59.0 °F 90% 30.14 in 10.0 mi East 4.6 mph - N/A   Overcast
10:54 PM 61.0 °F 57.9 °F 90% 30.14 in 10.0 mi ESE 3.5 mph - N/A   Overcast
11:54 PM 61.0 °F 57.9 °F 90% 30.13 in 10.0 mi NE 3.5 mph - N/A   Overcast